Temperature
18 16 16 16 17 17 17 17 16 17 17 17 17 16 16 17 17 17 17 17 18 18 18 18 18 18 17 17 17 17 17 16 16 16 16 16 16 16 16 16 15 15 15 15
16 16 17 17 17 17 17 17 16 17 18 18 17 17 16 16 16 17 17 17 18 18 18 18 18 18 18 17 17 17 17 16 16 16 16 16 16 15 15 15 15 15 15 15
17 17 18 18 17 17 17 17 17 17 17 17 17 16 16 16 17 17 17 18 18 18 18 18 18 18 18 17 17 17 17 16 16 16 16 16 16 15 15 15 15 15 15 15
17 18 18 18 18 17 17 18 17 17 16 15 17 15 16 16 16 16 17 17 18 18 18 18 18 18 18 18 17 17 17 16 16 16 16 16 16 15 15 15 15 15 15 15
17 18 18 18 18 18 17 18 17 17 16 15 16 16 15 15 15 15 16 17 18 18 18 18 18 18 18 18 17 17 17 16 16 16 16 16 16 15 15 15 15 15 15 15
17 18 18 18 18 18 17 17 16 15 15 15 16 15 15 15 15 16 16 17 18 18 18 18 18 18 18 18 17 17 17 17 16 16 16 16 16 15 15 15 15 15 15 15
17 18 18 18 18 17 17 15 15 15 14 15 15 15 15 16 16 16 17 17 18 18 18 18 18 18 18 18 17 17 17 17 16 16 16 16 16 16 15 15 15 15 15 15
16 16 18 18 18 17 16 16 15 15 15 15 15 15 16 17 17 18 18 18 18 18 18 18 18 18 18 18 17 17 17 17 16 16 16 16 16 16 15 15 15 15 15 15
16 17 18 18 18 17 16 15 15 15 15 15 15 15 16 17 16 17 17 17 17 18 18 18 18 18 18 18 18 17 17 17 16 16 16 16 16 16 15 15 15 15 15 15
17 17 18 18 18 17 16 15 14 15 15 15 16 16 16 17 16 16 16 16 17 18 18 18 18 18 18 18 17 17 17 17 17 16 16 16 16 16 15 15 15 15 15 15
17 17 17 17 17 17 16 16 14 14 14 15 15 16 17 17 16 16 16 17 17 18 18 18 18 18 18 17 17 17 17 17 17 16 16 16 16 16 15 15 15 15 15 15
16 15 16 17 17 18 17 16 15 15 15 14 14 15 17 17 16 16 17 17 18 18 18 18 18 18 17 17 17 17 17 17 17 16 16 16 16 16 16 15 15 15 15 15
16 15 16 16 17 17 17 16 16 14 14 13 14 16 17 16 16 17 17 18 18 18 18 18 18 17 17 17 17 17 17 17 17 16 16 16 16 16 16 15 15 15 15 15
16 15 16 17 17 17 17 17 16 15 14 14 15 16 17 16 16 16 17 18 18 18 18 18 17 17 17 17 17 17 17 17 17 16 16 16 16 16 16 15 15 15 15 15
16 16 16 16 17 17 17 17 16 16 15 15 16 16 17 16 16 17 17 17 17 17 17 17 17 17 17 17 17 17 17 17 16 16 16 16 16 15 15 15 15 15 15 15
15 16 16 17 17 17 17 17 17 17 16 16 16 16 16 17 17 16 17 17 17 17 17 17 17 18 18 17 17 17 17 16 16 16 16 16 15 15 15 15 15 15 15 14
14 15 15 16 16 17 17 17 17 17 16 16 16 17 16 15 15 16 16 17 17 17 18 18 18 18 18 18 17 17 17 16 16 16 16 16 15 15 15 15 15 15 15 14
14 14 13 14 16 17 17 17 17 17 17 16 16 16 16 16 16 17 17 17 18 18 18 18 18 18 18 18 17 17 17 16 16 16 16 16 15 15 15 15 15 15 14 14
14 14 13 14 15 16 17 17 17 17 17 16 16 16 16 16 16 16 17 18 18 18 19 19 19 18 18 17 17 17 17 16 16 16 16 16 15 15 15 15 15 15 14 14
13 13 13 13 15 16 17 17 17 17 17 17 16 15 15 16 15 15 17 18 18 18 18 18 18 18 18 17 17 17 17 16 16 16 16 16 16 15 15 15 15 14 14 14
14 13 13 13 15 15 16 16 17 17 17 17 17 16 16 15 16 17 17 18 18 18 18 18 18 18 17 17 17 17 16 16 16 16 16 16 15 15 15 15 14 14 14 13
14 13 13 12 14 15 16 16 16 16 17 17 17 17 17 17 17 17 17 17 17 18 18 18 17 17 17 17 17 16 16 16 16 15 15 15 15 15 14 14 14 14 13 13
13 13 13 13 14 15 16 16 17 18 17 18 18 17 17 17 17 17 17 17 17 17 17 17 17 17 17 16 16 16 16 16 15 15 15 15 15 14 14 14 14 13 13 13
12 12 12 12 13 15 16 17 17 18 18 18 18 18 18 17 17 17 17 17 17 17 17 17 17 17 16 16 16 16 16 16 15 15 15 14 14 14 14 14 13 13 13 13
13 12 12 13 13 15 16 17 17 17 18 18 18 18 18 17 17 17 17 17 17 17 17 16 16 16 16 16 16 16 15 15 15 15 15 14 14 14 14 13 13 13 13 13
11 12 13 13 14 14 16 17 17 17 17 17 17 17 17 17 17 17 17 17 16 16 16 16 16 16 16 16 16 15 15 15 15 14 14 14 14 14 13 13 13 13 12 12
Wind_Speed
3 5 1 3 4 4 5 4 2 1 1 2 3 3 4 4 4 4 5 6 6 6 3 5 6 6 6 6 6 6 6 5 5 3 3 3 2 2 3 4 5 5 5 5
5 1 3 2 4 5 4 4 1 1 1 2 2 3 4 5 6 7 7 8 8 6 4 5 6 6 6 7 6 6 6 6 4 3 3 2 2 2 1 3 5 6 5 5
3 3 2 5 4 4 2 4 3 2 2 3 2 3 3 4 4 5 6 7 7 9 9 8 8 7 7 7 7 7 6 6 5 5 4 3 4 3 3 3 3 4 5 5
1 1 3 3 3 4 2 3 4 3 3 1 1 2 5 5 5 6 7 7 8 8 9 9 9 9 8 8 7 7 6 6 5 6 5 5 3 2 0 0 1 3 5 5
1 1 2 2 2 4 3 3 4 3 3 1 1 1 6 2 6 9 9 8 9 10 10 11 11 10 8 7 6 6 6 5 5 5 6 6 4 2 1 2 3 3 4 5
1 1 2 3 1 3 4 6 6 5 4 1 4 4 6 5 8 7 9 9 10 9 9 9 8 7 6 6 6 6 7 5 5 6 6 6 6 5 4 2 2 2 2 3
3 2 1 2 3 3 4 5 3 3 2 4 3 3 8 8 7 9 10 10 9 9 9 9 9 9 9 8 8 7 8 6 6 6 6 6 6 6 5 3 2 2 1 2
1 3 3 2 4 5 3 6 5 3 3 4 2 5 7 6 5 6 6 7 8 8 8 10 10 10 10 10 9 9 9 7 7 6 6 5 5 4 3 3 3 2 1 1
5 4 2 2 2 7 5 3 4 4 2 2 4 6 7 2 1 2 4 6 8 9 9 9 9 9 9 10 10 10 10 8 7 7 6 5 5 5 4 4 3 2 2 2
7 2 2 1 4 3 5 7 4 3 2 2 5 5 4 4 2 1 4 6 7 7 8 8 8 9 9 9 9 9 9 9 8 7 6 5 5 5 5 4 4 3 3 3
4 3 1 2 5 6 4 4 4 4 4 3 3 6 5 6 5 5 6 6 7 8 8 8 7 8 8 8 9 9 9 8 7 7 6 6 5 5 4 4 4 4 3 4
5 5 1 4 3 4 5 6 7 4 3 4 3 7 6 5 5 5 6 6 6 7 7 7 7 7 8 9 9 9 9 9 8 8 7 6 5 5 5 4 4 4 4 4
6 5 2 4 4 1 2 4 5 5 4 4 3 7 4 2 2 3 4 5 5 6 6 6 7 8 8 9 9 9 9 9 8 8 7 7 6 6 5 5 5 5 5 5
6 4 6 6 6 4 3 4 5 6 4 4 7 8 8 5 5 4 4 5 6 7 8 8 8 8 8 9 10 9 9 9 9 8 8 7 6 6 6 5 5 5 5 5
5 4 4 5 4 4 4 6 7 7 8 8 8 8 10 7 6 5 4 4 5 6 7 8 9 8 8 8 9 9 9 9 9 9 8 7 6 6 6 5 5 5 4 5
3 3 2 2 2 4 4 6 7 8 6 7 6 8 6 4 1 2 3 5 6 8 9 9 9 9 10 10 10 9 9 9 9 10 9 8 7 7 6 6 6 5 5 4
3 4 3 2 3 1 4 5 6 4 4 6 7 7 3 1 2 3 5 6 7 8 9 10 10 10 10 10 10 11 10 9 9 9 8 8 8 8 7 7 6 6 5 5
6 5 3 1 2 3 6 2 4 4 3 5 4 4 4 4 3 3 3 6 6 7 7 8 9 9 9 8 8 9 9 10 10 9 8 8 8 8 7 7 6 5 5 5
5 7 4 3 2 4 5 2 3 4 3 3 5 4 2 1 1 2 2 4 6 7 7 7 7 7 8 9 9 10 10 9 9 9 9 10 10 9 9 8 7 5 5 5
5 4 5 4 3 5 6 3 1 3 3 3 4 4 2 3 1 4 3 2 2 2 3 4 5 5 7 8 9 11 10 10 10 10 9 9 10 10 10 9 7 5 5 5
3 3 4 4 4 6 6 3 3 4 5 2 2 3 4 4 4 3 1 1 1 2 3 5 6 6 7 9 10 10 10 11 10 8 8 8 9 9 9 7 6 7 6 6
6 5 5 5 4 6 3 2 5 5 2 1 1 2 3 2 0 1 1 2 2 2 3 5 6 5 5 8 10 10 10 8 8 9 9 8 8 8 8 8 7 7 7 7
5 7 6 7 6 4 2 3 3 2 1 1 1 1 2 2 0 1 1 2 3 3 4 4 5 5 5 6 9 10 8 8 9 9 8 7 7 7 8 9 8 7 6 6
3 2 4 2 4 3 3 3 2 1 2 1 2 2 3 2 2 2 2 2 2 3 3 4 6 6 4 4 5 6 7 9 10 10 8 7 7 7 6 6 7 7 7 6
4 4 3 3 4 2 4 3 2 1 1 3 3 2 3 3 2 2 3 2 3 2 3 4 6 6 5 4 4 5 8 10 10 9 8 7 7 7 6 5 5 7 7 8
4 5 6 5 6 5 4 3 0 1 1 2 3 3 2 3 2 2 3 2 3 3 3 4 4 4 4 5 5 5 7 10 10 8 7 6 6 5 5 5 3 1 3 5
Wind_Direction
51 72 127 207 174 157 141 128 129 271 278 118 162 210 231 204 187 195 199 197 200 209 191 160 162 153 145 145 148 155 148 144 129 108 100 90 68 30 28 29 39 60 71 77
52 341 222 156 131 120 124 118 136 336 33 128 169 235 236 216 209 206 204 209 203 197 174 165 163 160 164 162 162 163 161 155 145 128 117 113 110 75 40 16 31 41 61 73
160 240 157 127 124 128 156 169 186 180 45 48 93 311 244 241 217 216 214 209 205 197 188 180 176 177 175 173 173 171 168 158 146 131 111 87 66 47 33 18 11 12 47 69
194 252 134 135 156 146 204 201 165 143 106 322 107 273 270 231 229 227 221 211 209 205 191 183 183 184 187 184 173 164 160 156 151 144 138 135 131 123 113 351 11 17 43 60
244 149 128 158 200 164 184 130 122 120 119 23 309 206 279 230 234 235 222 212 212 204 194 189 188 189 187 178 168 164 155 155 154 152 147 139 132 131 99 60 56 35 30 43
245 203 166 178 126 131 120 76 64 52 74 295 233 192 272 228 221 224 214 208 207 199 193 189 182 176 172 166 160 158 156 155 151 149 147 146 144 138 122 103 83 45 30 28
349 344 338 128 99 63 86 91 48 10 8 260 246 206 248 243 223 212 209 207 203 192 184 181 177 176 173 171 167 162 159 157 152 149 150 153 152 151 151 152 141 115 63 35
154 288 241 189 166 156 153 137 154 186 226 283 274 240 258 263 245 219 202 191 186 184 184 187 186 181 179 176 169 165 165 161 159 157 158 153 153 151 154 154 150 142 127 103
177 246 265 199 153 133 133 153 163 137 175 274 280 282 302 317 347 151 159 163 183 188 186 188 186 181 178 176 175 173 168 164 166 166 158 151 150 153 155 152 139 130 122 109
158 207 277 172 95 51 140 143 113 125 150 277 300 287 261 275 273 197 182 187 192 188 187 185 184 181 180 178 173 170 166 169 169 164 164 160 154 156 153 142 137 131 120 101
142 150 315 126 180 178 130 130 130 129 152 161 285 282 235 223 220 212 214 202 192 190 189 186 182 177 171 167 168 170 167 164 164 163 159 152 154 153 146 144 147 139 126 118
146 129 218 259 266 188 170 170 152 154 202 178 195 271 281 236 226 216 218 203 190 190 186 178 172 165 166 168 171 173 171 169 170 164 158 157 153 147 146 149 148 138 131 121
142 124 94 354 349 21 169 171 164 140 134 162 189 267 310 322 280 235 213 202 188 181 174 166 164 170 174 175 175 175 174 172 166 158 155 153 152 152 152 149 144 138 132 124
126 129 165 193 215 201 206 193 168 146 167 205 225 256 288 291 281 269 235 204 185 182 176 173 175 179 178 179 177 176 174 169 164 160 158 158 162 159 153 146 141 139 135 132
119 162 205 226 225 198 215 212 191 194 196 202 238 244 261 262 249 235 217 190 178 181 182 182 183 182 178 176 176 175 172 167 165 162 163 166 157 148 141 138 137 134 132 132
110 151 165 281 253 210 242 243 214 215 215 225 250 266 263 267 245 213 196 184 189 195 194 191 187 183 181 180 179 175 174 170 166 168 169 160 152 147 146 144 140 132 125 121
132 129 131 257 305 42 276 246 205 201 206 195 223 249 272 294 252 224 208 197 201 205 196 191 191 189 188 186 182 180 176 167 165 168 165 160 156 152 154 150 143 142 139 131
142 131 140 159 72 233 248 255 183 188 228 218 231 248 230 229 243 235 205 199 208 205 199 197 192 189 185 180 176 168 159 162 165 166 166 163 159 157 153 149 152 148 141 139
145 139 132 138 189 274 291 279 179 180 261 231 223 251 254 228 16 317 248 208 208 205 199 195 189 182 172 172 167 157 158 160 163 171 173 171 166 161 159 160 159 153 144 139
81 108 124 137 170 230 250 270 214 133 273 256 208 222 198 121 81 278 278 235 211 186 173 165 155 148 160 168 159 157 162 166 178 181 177 170 166 165 167 167 160 152 148 146
98 97 143 167 207 254 257 280 124 158 242 271 198 201 179 188 209 256 270 198 156 143 141 143 143 152 165 162 158 163 167 183 184 168 160 159 162 165 163 155 152 147 142 136
168 161 177 159 190 250 272 132 169 214 266 236 182 191 191 202 126 64 113 120 110 104 115 132 139 145 148 158 161 168 181 179 156 151 154 158 157 158 154 147 147 146 145 143
185 185 183 187 209 247 254 218 246 209 220 228 163 156 153 141 105 64 89 125 129 124 132 134 137 135 138 158 168 175 176 154 146 146 152 153 152 150 151 152 153 150 151 156
245 160 148 213 262 277 286 289 301 254 228 223 144 134 136 136 133 107 98 109 119 118 130 132 131 137 148 161 162 166 156 153 148 150 152 151 151 148 149 154 159 160 167 171
214 158 158 218 262 313 310 288 274 321 64 78 81 106 133 125 116 120 123 130 133 115 124 138 149 154 160 154 147 148 150 147 147 150 151 153 153 155 156 160 172 177 187 184
198 175 174 212 216 193 239 266 250 104 97 110 98 69 75 119 138 125 121 116 119 120 118 126 133 144 150 147 144 145 153 151 148 149 154 156 156 157 157 154 137 156 180 190
Height
1509 1514 1518 1517 1516 1518 1520 1525 1528 1526 1521 1523 1525 1526 1524 1524 1526 1527 1528 1530 1532 1533 1536 1539 1541 1543 1545 1547 1549 1551 1552 1553 1555 1556 1557 1558 1558 1559 1560 1560 1560 1560 1560 1559
1514 1517 1514 1513 1514 1517 1520 1526 1528 1525 1522 1523 1526 1526 1524 1524 1524 1525 1527 1528 1530 1532 1535 1537 1540 1542 1545 1547 1548 1550 1552 1553 1555 1556 1557 1558 1559 1560 1560 1561 1561 1561 1561 1560
1515 1514 1511 1513 1516 1519 1522 1525 1526 1526 1524 1524 1527 1530 1526 1523 1523 1524 1525 1526 1528 1531 1533 1536 1538 1541 1543 1546 1548 1550 1552 1554 1555 1557 1558 1559 1560 1561 1561 1562 1562 1562 1562 1561
1513 1510 1511 1514 1516 1518 1524 1518 1521 1524 1530 1535 1531 1541 1528 1524 1523 1522 1522 1523 1525 1528 1531 1534 1536 1539 1542 1545 1547 1550 1552 1554 1555 1557 1558 1559 1560 1561 1562 1562 1562 1562 1562 1562
1513 1510 1512 1514 1515 1515 1518 1516 1520 1524 1530 1536 1534 1539 1532 1524 1524 1520 1519 1520 1522 1525 1528 1531 1534 1537 1541 1544 1546 1549 1551 1553 1555 1557 1558 1559 1560 1561 1562 1563 1563 1563 1563 1563
1510 1509 1510 1511 1511 1513 1515 1520 1525 1530 1535 1544 1536 1539 1535 1525 1518 1514 1514 1516 1518 1522 1525 1529 1532 1536 1539 1542 1545 1548 1550 1553 1555 1556 1558 1559 1560 1561 1562 1563 1563 1563 1564 1564
1514 1512 1510 1510 1514 1516 1518 1530 1543 1545 1549 1546 1533 1535 1529 1512 1509 1508 1510 1512 1515 1519 1522 1526 1529 1533 1537 1540 1543 1546 1549 1552 1554 1556 1558 1559 1560 1561 1562 1563 1564 1564 1565 1565
1522 1523 1512 1510 1513 1518 1521 1527 1542 1550 1551 1545 1534 1535 1519 1506 1504 1504 1506 1509 1512 1516 1519 1523 1526 1530 1534 1538 1541 1544 1548 1551 1553 1556 1557 1559 1560 1561 1563 1564 1564 1565 1565 1566
1521 1520 1509 1508 1509 1513 1522 1527 1528 1538 1540 1544 1537 1527 1513 1504 1503 1503 1505 1507 1510 1514 1517 1521 1524 1528 1532 1535 1539 1542 1546 1549 1552 1555 1557 1558 1560 1561 1563 1564 1565 1565 1566 1566
1511 1518 1511 1509 1510 1513 1515 1521 1532 1537 1544 1547 1538 1529 1522 1509 1506 1505 1505 1506 1508 1512 1515 1518 1522 1525 1529 1533 1537 1541 1545 1548 1551 1554 1556 1558 1560 1561 1563 1564 1565 1566 1566 1567
1507 1516 1515 1512 1513 1515 1519 1523 1527 1535 1537 1545 1545 1532 1506 1504 1502 1503 1503 1505 1507 1509 1512 1516 1519 1523 1527 1531 1535 1539 1543 1547 1550 1553 1555 1557 1559 1561 1563 1564 1565 1566 1566 1567
1506 1515 1520 1514 1508 1507 1510 1515 1523 1533 1537 1538 1541 1530 1499 1499 1499 1500 1501 1503 1505 1508 1511 1514 1518 1521 1525 1529 1533 1537 1541 1545 1548 1551 1554 1556 1559 1561 1562 1563 1564 1565 1566 1567
1504 1514 1524 1522 1519 1512 1511 1512 1515 1522 1531 1537 1539 1525 1499 1498 1498 1499 1500 1501 1503 1506 1509 1512 1516 1519 1522 1526 1530 1535 1539 1543 1547 1550 1553 1555 1557 1559 1561 1563 1564 1565 1566 1567
1499 1510 1518 1523 1518 1511 1511 1511 1513 1519 1529 1532 1527 1517 1503 1500 1499 1498 1498 1499 1502 1505 1507 1510 1513 1517 1520 1524 1528 1533 1537 1541 1545 1548 1551 1553 1556 1558 1560 1562 1563 1564 1565 1566
1498 1508 1508 1507 1505 1506 1506 1507 1509 1513 1515 1520 1514 1511 1502 1498 1497 1496 1497 1498 1500 1503 1506 1508 1511 1515 1518 1522 1526 1531 1535 1539 1542 1546 1549 1552 1555 1557 1559 1561 1562 1563 1564 1565
1499 1505 1506 1507 1503 1504 1505 1503 1504 1506 1507 1509 1507 1505 1496 1495 1495 1495 1496 1496 1498 1500 1503 1506 1509 1513 1516 1520 1524 1528 1532 1536 1540 1543 1547 1550 1553 1555 1557 1559 1561 1562 1563 1564
1501 1505 1511 1513 1507 1504 1509 1501 1500 1501 1500 1502 1504 1499 1495 1494 1494 1493 1494 1495 1496 1498 1500 1503 1506 1510 1513 1517 1521 1525 1529 1534 1538 1541 1544 1547 1550 1553 1556 1558 1559 1561 1562 1563
1500 1506 1513 1514 1511 1516 1504 1493 1493 1496 1496 1495 1494 1493 1493 1492 1492 1492 1492 1493 1494 1496 1498 1501 1504 1507 1511 1515 1519 1523 1528 1532 1535 1538 1542 1545 1548 1551 1554 1556 1558 1559 1561 1562
1495 1503 1512 1517 1517 1511 1499 1492 1492 1495 1495 1491 1491 1491 1491 1491 1491 1491 1491 1492 1493 1494 1496 1499 1502 1505 1508 1512 1516 1520 1524 1528 1532 1535 1539 1542 1546 1549 1551 1553 1555 1557 1559 1560
1497 1499 1510 1515 1515 1515 1500 1489 1488 1492 1496 1489 1488 1488 1489 1490 1494 1492 1489 1490 1491 1493 1495 1497 1500 1503 1506 1510 1514 1517 1521 1525 1528 1532 1536 1540 1543 1546 1549 1551 1553 1555 1557 1558
1502 1506 1510 1513 1512 1505 1492 1488 1489 1501 1497 1487 1486 1486 1487 1488 1490 1489 1488 1489 1490 1491 1493 1496 1499 1501 1504 1508 1511 1514 1518 1521 1525 1530 1534 1537 1540 1543 1546 1549 1551 1553 1555 1556
1500 1505 1508 1511 1512 1506 1487 1487 1490 1490 1485 1485 1485 1485 1486 1486 1487 1488 1488 1488 1489 1490 1492 1495 1497 1500 1503 1506 1509 1512 1515 1520 1524 1527 1531 1534 1538 1541 1544 1546 1548 1551 1552 1554
1494 1495 1497 1499 1498 1488 1485 1485 1485 1484 1484 1484 1484 1485 1485 1486 1486 1487 1487 1488 1489 1490 1492 1494 1497 1499 1502 1505 1508 1511 1514 1518 1522 1525 1528 1532 1535 1538 1541 1543 1546 1548 1550 1552
1489 1488 1491 1492 1488 1485 1484 1484 1483 1483 1483 1483 1483 1484 1485 1485 1486 1486 1487 1488 1489 1490 1492 1494 1496 1498 1501 1504 1507 1510 1513 1516 1520 1523 1526 1530 1533 1535 1538 1541 1543 1545 1547 1548
1485 1487 1489 1489 1485 1484 1483 1482 1482 1483 1482 1483 1483 1484 1485 1485 1485 1486 1487 1488 1489 1490 1492 1494 1496 1498 1501 1504 1506 1509 1512 1515 1517 1521 1524 1527 1530 1533 1535 1538 1540 1542 1544 1546
1482 1483 1485 1485 1481 1482 1481 1481 1482 1482 1482 1482 1482 1483 1484 1485 1485 1486 1487 1488 1489 1490 1492 1493 1495 1498 1500 1503 1505 1508 1510 1513 1516 1519 1522 1525 1527 1530 1532 1535 1537 1540 1542 1544